Voltar ao catálogo

FENGYUN 1C DEB

AtivoPO
NORAD 31046·DEBRIS·🇨🇳 China

Lançado May 10, 1999 de Taiyuan Satellite Launch Center

Loading…

Próximas Passagens (próximas 24 horas)

TLE

AtualizadoSource: Space-Track

Época: Sep 14, 2026, 16:22 UTC

1 31046U 99025BEQ 26257.68238766  .00018794  00000-0  25652-2 0  9998
2 31046  98.9638  50.2030 0033566 323.5979 166.3493 14.78288219  6952

Acompanhe FENGYUN 1C DEB em tempo real com AllMySat

Download on the App Store